Location: Clermont
(50.2608°N, 4.3172°E)
Time: 10:20:18
(UTC+00:00)

Cosmos 1954 Rocket - Pass Details

Date: 13 August 2020
Orbit: 753 x 781 km, 74.0° (Epoch: 20 September)

Event Time Altitude Azimuth Distance (km) Brightness Sun altitude
Rises 20:20:40 0° 199° (SSW) 3,253 7.0 -11.2°
Reaches altitude 10° 20:23:02 10° 199° (SSW) 2,330 6.3 -11.5°
Maximum altitude 20:28:20 83° 113° (ESE) 793 4.0 -12.1°
Drops below altitude 10° 20:33:41 10° 25° (NNE) 2,343 6.7 -12.7°
Sets 20:36:05 0° 25° (NNE) 3,273 7.5 -13.0°
